[keps] orb08192.amsat
Ray Hoad
r.hoad at att.net
Thu Jul 10 16:20:48 PDT 2008
SB KEPS @ AMSAT $ORB08192.O
Orbital Elements 08192.OSCAR
HR AMSAT ORBITAL ELEMENTS FOR OSCAR SATELLITES
FROM WA5QGD FORT WORTH,TX July 10, 2008
Send Subscribe/unsubscribe to KEPS at
http://www.amsat.org/mailman/listinfo/keps
BID: ORB08192.O
TO ALL RADIO AMATEURS BT
Satellite: AO-07
Catalog number: 07530
Epoch time: 08191.63939258
Element set: 222
Inclination: 101.4638 deg
RA of node: 222.3840 deg
Eccentricity: 0.0011699
Arg of perigee: 217.5844 deg
Mean anomaly: 142.4407 deg
Mean motion: 12.53573775 rev/day
Decay rate: -2.7e-07 rev/day^2
Epoch rev: 53979
Checksum: 314
Satellite: AO-10
Catalog number: 14129
Epoch time: 08190.10576138
Element set: 0528
Inclination: 025.9872 deg
RA of node: 206.6143 deg
Eccentricity: 0.5978692
Arg of perigee: 138.4081 deg
Mean anomaly: 287.2936 deg
Mean motion: 02.05869898 rev/day
Decay rate: -1.27e-06 rev/day^2
Epoch rev: 18853
Checksum: 346
Satellite: UO-11
Catalog number: 14781
Epoch time: 08191.70455790
Element set: 0716
Inclination: 098.1519 deg
RA of node: 226.0740 deg
Eccentricity: 0.0009530
Arg of perigee: 007.3454 deg
Mean anomaly: 352.7805 deg
Mean motion: 14.79655888 rev/day
Decay rate: 6.96e-06 rev/day^2
Epoch rev: 30718
Checksum: 328
Satellite: RS-15
Catalog number: 23439
Epoch time: 08191.89623919
Element set: 0135
Inclination: 064.8153 deg
RA of node: 098.3251 deg
Eccentricity: 0.0147275
Arg of perigee: 118.5928 deg
Mean anomaly: 242.9902 deg
Mean motion: 11.27552319 rev/day
Decay rate: -3.9e-07 rev/day^2
Epoch rev: 55752
Checksum: 329
Satellite: FO-29
Catalog number: 24278
Epoch time: 08192.63915145
Element set: 809
Inclination: 098.5855 deg
RA of node: 105.8625 deg
Eccentricity: 0.0351094
Arg of perigee: 154.7658 deg
Mean anomaly: 207.1235 deg
Mean motion: 13.52938664 rev/day
Decay rate: 1.7e-07 rev/day^2
Epoch rev: 58756
Checksum: 347
Satellite: SO-33
Catalog number: 25509
Epoch time: 08191.41739907
Element set: 237
Inclination: 031.4310 deg
RA of node: 190.6591 deg
Eccentricity: 0.0355359
Arg of perigee: 221.5991 deg
Mean anomaly: 135.7099 deg
Mean motion: 14.28217335 rev/day
Decay rate: -2.38e-06 rev/day^2
Epoch rev: 50679
Checksum: 321
Satellite: AO-40
Catalog number: 26609
Epoch time: 08190.30569789
Element set: 87
Inclination: 007.6097 deg
RA of node: 073.4010 deg
Eccentricity: 0.7917818
Arg of perigee: 099.3318 deg
Mean anomaly: 347.2192 deg
Mean motion: 01.25582485 rev/day
Decay rate: -1.55e-06 rev/day^2
Epoch rev: 3530
Checksum: 326
Satellite: VO-52
Catalog number: 28650
Epoch time: 08191.83010592
Element set: 0977
Inclination: 097.7897 deg
RA of node: 257.8202 deg
Eccentricity: 0.0028263
Arg of perigee: 067.9292 deg
Mean anomaly: 292.4951 deg
Mean motion: 14.81482057 rev/day
Decay rate: 4.14e-06 rev/day^2
Epoch rev: 17195
Checksum: 341
Satellite: PO-63
Catalog number: 29712
Epoch time: 08192.74881263
Element set: 605
Inclination: 097.8739 deg
RA of node: 250.4929 deg
Eccentricity: 0.0013386
Arg of perigee: 309.4064 deg
Mean anomaly: 050.5956 deg
Mean motion: 14.80206417 rev/day
Decay rate: 3.79e-06 rev/day^2
Epoch rev: 8095
Checksum: 335
/EX
SB KEPS @ AMSAT $ORB08192.D
Orbital Elements 08192.MICROS
HR AMSAT ORBITAL ELEMENTS FOR THE MICROSATS
FROM WA5QGD FORT WORTH,TX July 10, 2008
Send Subscribe/unsubscribe to KEPS at
http://www.amsat.org/mailman/listinfo/keps
BID: ORB08192.D
TO ALL RADIO AMATEURS BT
Satellite: AO-16
Catalog number: 20439
Epoch time: 08191.85259945
Element set: 0365
Inclination: 098.2302 deg
RA of node: 170.7568 deg
Eccentricity: 0.0011753
Arg of perigee: 106.5614 deg
Mean anomaly: 253.6864 deg
Mean motion: 14.31797603 rev/day
Decay rate: -1.9e-07 rev/day^2
Epoch rev: 96416
Checksum: 326
Satellite: LO-19
Catalog number: 20442
Epoch time: 08192.52499167
Element set: 290
Inclination: 098.2024 deg
RA of node: 179.8627 deg
Eccentricity: 0.0012911
Arg of perigee: 103.9789 deg
Mean anomaly: 256.2826 deg
Mean motion: 14.32036036 rev/day
Decay rate: 1.4e-07 rev/day^2
Epoch rev: 96441
Checksum: 311
Satellite: AO-27
Catalog number: 22825
Epoch time: 08191.81307716
Element set: 12
Inclination: 098.3848 deg
RA of node: 150.9876 deg
Eccentricity: 0.0008008
Arg of perigee: 188.4514 deg
Mean anomaly: 171.6527 deg
Mean motion: 14.29243074 rev/day
Decay rate: 1.10e-06 rev/day^2
Epoch rev: 77100
Checksum: 298
Satellite: IO-26
Catalog number: 22826
Epoch time: 08191.93318477
Element set: 0720
Inclination: 098.3784 deg
RA of node: 152.0033 deg
Eccentricity: 0.0008600
Arg of perigee: 185.2110 deg
Mean anomaly: 174.8988 deg
Mean motion: 14.29491216 rev/day
Decay rate: -3.4e-07 rev/day^2
Epoch rev: 77111
Checksum: 303
Satellite: PO-28
Catalog number: 22829
Epoch time: 08191.83860853
Element set: 0990
Inclination: 098.3661 deg
RA of node: 153.0120 deg
Eccentricity: 0.0009829
Arg of perigee: 156.9885 deg
Mean anomaly: 203.1731 deg
Mean motion: 14.30192843 rev/day
Decay rate: 5.4e-07 rev/day^2
Epoch rev: 77136
Checksum: 322
Satellite: GO-32
Catalog number: 25397
Epoch time: 08192.59310110
Element set: 643
Inclination: 098.3619 deg
RA of node: 226.5987 deg
Eccentricity: 0.0001698
Arg of perigee: 139.9933 deg
Mean anomaly: 220.1374 deg
Mean motion: 14.23144938 rev/day
Decay rate: -1.67e-06 rev/day^2
Epoch rev: 51954
Checksum: 327
Satellite: NO-44
Catalog number: 26931
Epoch time: 08192.58373009
Element set: 923
Inclination: 067.0508 deg
RA of node: 224.3839 deg
Eccentricity: 0.0007256
Arg of perigee: 270.8377 deg
Mean anomaly: 089.1865 deg
Mean motion: 14.29528293 rev/day
Decay rate: 1.17e-06 rev/day^2
Epoch rev: 35375
Checksum: 333
Satellite: SO-50
Catalog number: 27607
Epoch time: 08191.70763762
Element set: 0647
Inclination: 064.5606 deg
RA of node: 345.2435 deg
Eccentricity: 0.0086193
Arg of perigee: 274.9078 deg
Mean anomaly: 084.2110 deg
Mean motion: 14.71369411 rev/day
Decay rate: 5.12e-06 rev/day^2
Epoch rev: 29828
Checksum: 318
Satellite: CO-55
Catalog number: 27844
Epoch time: 08191.69365489
Element set: 0348
Inclination: 098.7152 deg
RA of node: 199.6469 deg
Eccentricity: 0.0011036
Arg of perigee: 054.3085 deg
Mean anomaly: 305.9110 deg
Mean motion: 14.20587020 rev/day
Decay rate: 1.7e-07 rev/day^2
Epoch rev: 26063
Checksum: 315
Satellite: CO-57
Catalog number: 27848
Epoch time: 08191.55388859
Element set: 297
Inclination: 098.7157 deg
RA of node: 198.6008 deg
Eccentricity: 0.0010739
Arg of perigee: 057.1364 deg
Mean anomaly: 303.0848 deg
Mean motion: 14.20395722 rev/day
Decay rate: 1.9e-07 rev/day^2
Epoch rev: 26058
Checksum: 347
Satellite: AO-51
Catalog number: 28375
Epoch time: 08191.76088940
Element set: 0145
Inclination: 098.0695 deg
RA of node: 215.0605 deg
Eccentricity: 0.0085085
Arg of perigee: 083.9743 deg
Mean anomaly: 277.1127 deg
Mean motion: 14.40613020 rev/day
Decay rate: 3.0e-08 rev/day^2
Epoch rev: 21165
Checksum: 296
Satellite: CO-56
Catalog number: 28941
Epoch time: 08192.83844229
Element set: 206
Inclination: 098.1073 deg
RA of node: 306.8057 deg
Eccentricity: 0.0161458
Arg of perigee: 315.2514 deg
Mean anomaly: 043.5692 deg
Mean motion: 15.58051348 rev/day
Decay rate: 7.197e-05 rev/day^2
Epoch rev: 13372
Checksum: 324
Satellite: CP4
Catalog number: 31122
Epoch time: 08191.71621500
Element set: 0385
Inclination: 098.0406 deg
RA of node: 256.4740 deg
Eccentricity: 0.0084363
Arg of perigee: 258.3420 deg
Mean anomaly: 100.8266 deg
Mean motion: 14.55140808 rev/day
Decay rate: 5.49e-06 rev/day^2
Epoch rev: 06535
Checksum: 278
Satellite: CP3
Catalog number: 31128
Epoch time: 08192.83439520
Element set: 376
Inclination: 098.0390 deg
RA of node: 255.2747 deg
Eccentricity: 0.0101475
Arg of perigee: 261.5662 deg
Mean anomaly: 097.4039 deg
Mean motion: 14.51958710 rev/day
Decay rate: -4.8e-07 rev/day^2
Epoch rev: 6536
Checksum: 311
/EX
SB KEPS @ AMSAT $ORB08192.W
Orbital Elements 08192.WEATHER
HR AMSAT ORBITAL ELEMENTS FOR WEATHER SATELLITES
FROM WA5QGD FORT WORTH,TX July 10, 2008
Send Subscribe/unsubscribe to KEPS at
http://www.amsat.org/mailman/listinfo/keps
BID: ORB08192.W
TO ALL RADIO AMATEURS BT
Satellite: NOAA-10
Catalog number: 16969
Epoch time: 08191.58633975
Element set: 0193
Inclination: 098.7208 deg
RA of node: 213.5107 deg
Eccentricity: 0.0013060
Arg of perigee: 113.8153 deg
Mean anomaly: 246.4403 deg
Mean motion: 14.27363662 rev/day
Decay rate: 3.2e-07 rev/day^2
Epoch rev: 13463
Checksum: 291
Satellite: NOAA-11
Catalog number: 19531
Epoch time: 08191.72645729
Element set: 0230
Inclination: 098.7985 deg
RA of node: 280.7385 deg
Eccentricity: 0.0011625
Arg of perigee: 008.3116 deg
Mean anomaly: 351.8253 deg
Mean motion: 14.14873713 rev/day
Decay rate: 2.56e-06 rev/day^2
Epoch rev: 02109
Checksum: 301
Satellite: NOAA-12
Catalog number: 21263
Epoch time: 08191.80269791
Element set: 0747
Inclination: 098.7658 deg
RA of node: 193.7522 deg
Eccentricity: 0.0013412
Arg of perigee: 062.6124 deg
Mean anomaly: 297.6383 deg
Mean motion: 14.25537962 rev/day
Decay rate: 1.6e-07 rev/day^2
Epoch rev: 89161
Checksum: 325
Satellite: MET-3/5
Catalog number: 21655
Epoch time: 08191.90797915
Element set: 0541
Inclination: 082.5550 deg
RA of node: 088.3367 deg
Eccentricity: 0.0013140
Arg of perigee: 322.4901 deg
Mean anomaly: 037.5304 deg
Mean motion: 13.17015931 rev/day
Decay rate: 5.1e-07 rev/day^2
Epoch rev: 81257
Checksum: 286
Satellite: MET-2/21
Catalog number: 22782
Epoch time: 08192.27759929
Element set: 192
Inclination: 082.5477 deg
RA of node: 093.2644 deg
Eccentricity: 0.0021308
Arg of perigee: 223.0127 deg
Mean anomaly: 136.9361 deg
Mean motion: 13.83631514 rev/day
Decay rate: 6.9e-07 rev/day^2
Epoch rev: 75032
Checksum: 307
Satellite: OKEAN-4
Catalog number: 23317
Epoch time: 08191.73348749
Element set: 635
Inclination: 082.5404 deg
RA of node: 294.0310 deg
Eccentricity: 0.0023817
Arg of perigee: 055.4164 deg
Mean anomaly: 304.9304 deg
Mean motion: 14.82622678 rev/day
Decay rate: 2.21e-06 rev/day^2
Epoch rev: 74162
Checksum: 290
